User: anonymous
Location: Albany
(35.0000°S, 118.0000°E)
Time: 12:17:49
(UTC-04:00)
Language:

SJ-6B - Orbit

View from above orbital plane
View from above orbital plane
View from above satellite
View from above satellite

Ground track
Ground track

The orbit data is extracted from the following two-line orbital elements,

1 28415U 04035C   14274.04267196  .00004728  00000-0  34772-3 0  3109
2 28415 097.7998 279.3533 0055910 233.0917 126.5178 15.02646385549646
Epoch (UTC): 01 October 2014 01:01:26
Eccentricity: 0.0055910
inclination: 97.7998°
perigee height: 520 km
apogee height: 597 km
right ascension of ascending node: 279.3533°
argument of perigee: 233.0917°
revolutions per day: 15.02646385
mean anomaly at epoch: 126.5178°
orbit number at epoch: 54964

The dashed part of the orbit path shows where the satellite is in the earth's shadow,  

DLR